Weather in Yardymli

Azerbaijan     38°54′34″N   48°14′58″E
temp.,
°C
wind,
m/s
gust,
m/s
humid.,
%
clouds,
%
prec.,
mm/h
press.,
hPa
HPBL,
m
21 april, wed
wed2101:00+19sw333797 0.0 101317
04:00+18sw33395 0.0 101317
07:00+18sw32455 0.0 101419
10:00+25ene123477 0.0 1014691
13:00+26nne253724 0.0 10131817
16:00+24e445121 0.0 1012632
19:00+17sse3470100 0.0 101388
22:00+15se346974 0.1 101560
22 april, thu
thu2201:00+11sse4589100 0.0 1018116
04:00+11se348576 0.0 1018100
07:00+11se3486100 0.0 1019142
10:00+16e3370100 0.0 1018329
13:00+19ene436297 0.0 1016667
16:00+15e4479100 0.1 1016306
19:00+11ne2292100 0.1 1018163
22:00+10ese1295100 0.4 1019106
23 april, fri
fri2301:00+10se3394100 0.0 101789
04:00+9se3491100 0.0 101687
07:00+9ese1189100 0.1 101883
10:00+13nne227649 0.1 1018561
13:00+15nne327283 0.0 1019872
16:00+14ene327993 0.1 1019651
19:00+11ese338954 0.0 1021295
22:00+9se349374 0.1 1023211
24 april, sat
sat2401:00+8se239599 0.0 1023107
04:00+8s228998 0.0 102022
07:00+11w11821 0.0 102027
10:00+15nne327038 0.0 1018687
13:00+16nne327173 0.0 1017794
16:00+17nne326943 0.0 1016822
19:00+14ne118717 0.0 101754
22:00+11s11901 0.0 101910
25 april, sun
sun2501:00+11sw22900 0.0 101911
04:00+10w11890 0.0 101910
07:00+12s11860 0.0 101914
10:00+16ne317438 0.0 1017598
13:00+19ne426729 0.0 1015736
16:00+20ene31683 0.0 1013556
19:00+16e11870 0.1 101211
22:00+14w11863 0.1 101311